Wind_Speed
7 7 7 7 7 6 6 5 5 5 4 4 4 4 3 3 3 3 2 2 2 2 2 3 3 3 4 4 3 3 3 3 4 4 3 3 4 4 4 4 5 4 4
8 8 8 7 7 6 6 5 5 5 5 5 4 4 4 4 4 3 3 3 2 3 3 3 3 3 3 4 4 4 4 4 4 4 3 3 3 5 5 5 5 5 4
8 8 8 8 7 7 6 6 6 6 6 6 5 5 5 5 4 4 3 3 3 3 3 3 3 3 3 4 5 5 4 5 4 3 3 3 3 5 6 5 6 5 4
8 8 9 8 8 7 7 6 6 6 6 6 7 6 5 5 5 5 4 4 3 3 3 3 3 3 3 4 4 4 5 4 4 4 4 4 4 4 5 5 6 6 5
9 9 9 9 8 8 7 7 6 7 7 7 8 7 6 6 5 4 4 4 4 4 3 3 3 3 4 4 5 4 5 5 5 5 4 5 5 4 4 5 6 6 6
10 9 9 9 8 8 8 7 7 7 8 8 8 7 6 6 5 4 4 4 4 4 4 4 4 4 4 5 5 5 5 5 5 5 4 4 4 5 4 5 5 6 7
11 10 10 10 9 9 9 8 8 8 8 8 8 7 7 7 5 5 5 4 4 5 5 5 5 4 5 5 6 6 6 6 6 5 6 5 5 5 5 5 5 6 6
11 11 11 11 10 10 9 9 8 8 8 9 9 8 8 7 7 6 5 5 5 5 5 6 6 6 6 5 6 7 7 6 7 6 6 6 6 6 6 5 5 6 6
11 11 11 11 12 11 11 10 9 9 9 9 9 8 8 8 8 8 7 6 6 5 5 6 6 6 6 6 6 7 7 7 8 7 6 7 7 6 6 6 6 6 6
13 12 13 12 12 12 11 10 10 9 9 9 9 8 8 8 7 8 8 7 6 6 6 6 6 7 8 7 7 7 7 8 8 8 8 7 7 7 7 7 7 8 7
14 13 13 13 13 12 11 10 10 9 9 9 8 8 8 8 8 8 8 8 7 7 7 7 7 8 8 8 8 8 9 9 8 9 9 8 8 8 8 9 9 9 9
14 14 14 14 13 13 12 11 10 10 9 9 8 8 8 7 7 8 8 9 9 9 9 9 9 9 9 10 10 10 10 9 9 10 10 10 9 9 10 10 10 10 10
15 15 15 14 13 13 12 11 11 10 10 9 9 8 9 8 8 9 9 10 10 10 11 11 10 11 11 11 12 13 12 11 10 10 10 10 11 11 11 11 11 12 12
16 16 15 15 14 13 13 12 11 11 11 10 9 9 10 10 10 10 10 11 11 12 13 13 13 13 13 12 12 13 13 13 12 12 11 12 12 12 12 12 12 12 12
16 16 16 16 15 14 13 12 12 12 11 11 10 11 11 11 11 11 11 12 12 13 14 14 14 15 14 13 13 13 13 13 13 13 13 13 13 13 13 13 13 13 13
16 16 17 17 16 15 14 13 13 12 12 12 12 12 12 11 11 12 12 12 12 13 14 14 14 15 15 14 14 14 14 14 15 15 14 14 14 14 14 14 15 15 15
17 17 17 17 16 15 15 14 13 13 13 13 13 13 12 12 13 13 13 13 14 14 14 15 16 16 15 15 15 15 16 15 16 16 16 16 15 15 15 15 16 16 15
18 17 17 17 16 15 15 14 14 15 14 14 14 14 14 13 13 13 14 14 14 15 15 15 15 15 16 15 16 16 16 17 17 17 17 17 17 17 17 18 17 17 16
19 18 18 18 16 16 15 16 15 15 15 15 15 15 14 14 14 14 14 14 15 15 16 16 15 14 15 15 16 17 17 17 18 19 19 19 19 19 19 19 19 18 17
20 19 19 18 17 17 17 17 17 17 16 16 16 15 15 15 15 15 14 15 15 16 15 15 15 15 16 16 17 18 18 19 19 19 20 20 20 20 20 20 20 20 20
20 19 19 19 19 18 18 18 18 18 17 17 17 17 17 17 16 16 15 16 16 15 15 15 16 16 16 17 18 18 18 19 20 20 20 21 21 21 22 21 21 21 21
21 20 20 20 20 19 18 19 19 19 18 18 18 18 18 18 17 17 17 17 16 16 16 16 17 17 16 17 18 19 20 20 20 21 21 22 23 23 23 23 22 22 23
21 21 21 21 21 21 20 20 20 20 19 19 19 19 19 19 19 19 19 19 18 18 17 17 17 17 17 18 18 19 20 21 22 22 23 23 24 24 23 24 23 22 22
21 21 21 21 21 21 21 21 21 20 20 20 20 21 21 21 21 21 21 20 20 20 19 19 19 19 18 19 19 20 20 21 22 23 24 24 25 25 24 24 23 23 23
22 21 21 21 21 22 21 21 20 20 20 20 21 21 21 22 22 22 22 22 21 21 21 21 20 19 20 20 20 20 21 22 22 23 23 23 24 25 26 26 26 26 25
22 23 22 21 21 21 21 21 20 20 20 20 21 22 22 23 23 22 22 22 22 23 23 22 22 21 21 21 21 20 21 22 22 23 23 23 24 25 26 26 27 27 28
Wind_Direction
336 336 333 330 330 328 324 317 315 309 299 294 283 260 240 232 227 223 232 225 217 206 198 192 187 179 184 193 193 180 173 167 183 192 197 202 204 191 193 196 187 182 198
333 334 331 326 325 322 318 315 310 308 303 296 285 265 252 242 238 227 236 236 226 212 213 221 208 196 194 206 207 202 192 190 192 197 204 204 201 198 200 192 198 197 210
329 332 330 326 324 322 318 312 309 306 303 297 287 274 258 252 246 239 240 240 230 221 223 230 221 219 217 218 219 217 211 205 206 203 203 203 212 210 208 205 208 206 213
327 328 328 326 323 320 316 311 308 305 302 296 288 279 266 256 250 242 247 250 243 231 228 234 227 232 236 233 229 228 223 215 217 215 215 219 225 216 218 213 214 213 216
325 325 325 325 322 318 315 310 308 304 298 297 290 280 267 264 260 251 250 256 253 238 236 227 223 234 243 238 234 236 235 222 221 225 228 228 235 234 230 221 223 224 222
323 322 321 323 322 319 315 311 306 302 296 295 291 278 268 268 266 259 261 262 262 252 246 240 232 238 244 234 234 239 242 227 224 226 225 237 244 246 244 241 236 235 233
322 320 317 320 319 319 316 314 310 306 302 294 290 284 272 266 259 265 266 267 274 270 255 246 246 248 249 243 241 243 246 234 232 240 240 243 253 257 247 243 248 244 240
322 321 318 316 314 314 314 313 311 307 305 300 292 288 280 268 265 268 269 269 276 280 265 256 254 254 255 256 250 244 247 242 240 245 245 245 250 252 245 249 261 258 246
321 321 320 316 314 312 311 308 306 302 302 300 291 289 282 274 266 267 270 272 273 275 268 265 263 260 254 255 257 252 249 250 250 254 259 251 250 248 241 248 262 263 257
316 316 315 314 314 310 308 304 303 301 301 299 298 294 287 283 274 269 270 271 274 274 271 269 262 263 261 258 258 259 258 254 254 255 255 254 257 251 244 250 254 255 258
316 315 312 307 309 307 305 303 301 299 300 304 302 297 293 286 276 272 269 266 269 272 270 270 267 265 268 266 263 258 257 259 260 256 256 258 258 256 251 255 253 257 262
314 314 315 307 303 304 306 299 298 298 299 302 302 298 294 285 278 272 270 269 268 266 266 270 270 269 267 266 265 262 259 260 264 260 257 256 258 257 255 257 260 262 266
309 310 314 311 304 304 303 301 298 298 297 296 299 299 295 289 285 280 273 273 272 269 267 270 271 270 268 265 263 262 260 261 264 261 255 256 259 257 259 263 264 264 266
307 309 311 310 305 302 301 303 299 297 295 294 295 295 293 291 288 282 279 277 274 273 269 270 269 269 269 268 265 263 261 259 262 262 255 257 260 257 260 264 267 264 264
304 306 307 308 306 300 298 298 299 300 296 296 296 294 291 289 287 282 281 281 280 279 276 272 270 268 269 266 264 264 259 257 258 258 260 264 266 261 260 261 265 263 262
300 302 304 304 301 297 294 294 297 298 294 293 294 293 292 289 287 283 283 284 283 281 280 275 273 271 270 267 263 260 260 259 258 260 262 262 262 263 262 260 261 265 267
297 298 298 298 297 291 288 290 292 294 292 291 291 292 292 290 287 286 283 283 284 283 282 277 272 270 269 266 263 262 262 262 263 262 261 260 260 261 262 264 264 266 268
292 294 295 297 297 292 289 288 288 288 289 289 288 288 290 291 287 287 284 283 282 282 283 280 275 270 267 265 264 263 264 265 264 263 263 262 261 261 262 263 265 265 267
290 290 291 291 292 291 290 286 286 285 286 287 286 284 285 289 290 290 290 288 285 284 283 282 278 275 271 269 266 262 264 266 266 265 264 264 264 262 263 263 263 264 264
289 288 287 286 288 287 287 286 284 283 284 282 282 283 284 288 288 289 290 290 289 287 286 282 277 277 275 272 269 265 265 266 267 269 266 263 263 264 265 265 263 264 263
288 287 285 285 285 286 286 287 285 283 280 278 279 283 284 284 285 287 289 289 288 286 287 285 282 280 278 276 274 272 270 269 269 269 267 264 263 265 266 265 264 265 263
287 287 285 283 284 284 284 283 282 280 278 277 278 279 279 281 283 283 284 285 284 284 286 285 285 282 280 279 278 275 274 272 271 269 269 267 265 265 266 266 264 264 264
287 286 285 283 282 282 282 280 280 279 277 276 276 275 275 278 280 279 279 280 281 280 280 284 286 285 283 282 281 280 278 276 272 270 269 268 267 268 267 266 266 267 266
287 286 287 284 281 281 280 279 278 278 276 274 273 273 273 276 279 278 275 278 279 279 278 280 284 286 285 284 283 281 278 278 276 272 270 269 269 268 268 267 266 266 266
290 288 287 285 281 278 278 277 275 277 277 274 275 275 277 278 278 277 275 276 278 278 278 280 282 284 285 286 286 283 281 279 277 276 273 272 270 269 268 267 266 266 268
287 287 286 285 282 279 278 278 277 276 277 276 274 275 277 279 277 274 273 275 276 277 278 279 280 282 284 285 284 283 283 281 279 279 277 274 273 271 269 267 268 268 269
Height
5885 5883 5883 5882 5881 5880 5879 5878 5877 5877 5876 5875 5875 5874 5874 5874 5874 5874 5874 5874 5875 5875 5875 5875 5875 5875 5876 5876 5877 5877 5878 5879 5880 5880 5881 5881 5882 5883 5884 5885 5886 5887 5888
5885 5883 5882 5881 5880 5879 5878 5877 5877 5876 5876 5875 5874 5874 5874 5874 5873 5874 5874 5874 5874 5875 5875 5875 5875 5876 5876 5877 5877 5878 5878 5879 5879 5880 5881 5881 5882 5883 5884 5885 5886 5887 5888
5884 5883 5882 5880 5880 5879 5878 5877 5876 5876 5875 5874 5874 5873 5873 5873 5873 5873 5873 5873 5874 5874 5874 5875 5875 5875 5876 5876 5877 5877 5878 5878 5879 5880 5881 5882 5882 5883 5884 5885 5886 5887 5887
5884 5883 5881 5880 5879 5878 5877 5876 5876 5875 5874 5874 5873 5873 5872 5872 5872 5872 5873 5873 5873 5874 5874 5874 5875 5875 5875 5876 5876 5877 5877 5878 5879 5880 5881 5881 5882 5883 5883 5884 5885 5886 5887
5883 5882 5880 5879 5879 5878 5877 5876 5875 5874 5874 5873 5872 5872 5871 5871 5871 5871 5872 5872 5873 5873 5873 5874 5874 5875 5875 5875 5876 5876 5877 5878 5879 5879 5880 5881 5881 5882 5883 5884 5885 5886 5886
5882 5881 5880 5879 5878 5877 5876 5875 5874 5873 5873 5872 5872 5871 5870 5870 5870 5871 5871 5872 5872 5872 5873 5873 5874 5874 5874 5874 5875 5876 5876 5877 5878 5878 5879 5880 5881 5882 5883 5884 5884 5885 5886
5881 5880 5879 5878 5877 5876 5875 5874 5873 5873 5872 5871 5871 5870 5869 5870 5870 5870 5871 5871 5871 5871 5872 5872 5873 5873 5873 5874 5874 5875 5875 5876 5876 5878 5879 5880 5880 5881 5882 5883 5884 5884 5885
5880 5879 5878 5877 5876 5876 5875 5874 5873 5872 5871 5870 5870 5869 5869 5869 5869 5870 5870 5870 5870 5870 5871 5871 5872 5872 5872 5872 5873 5874 5874 5875 5875 5877 5878 5878 5879 5880 5881 5882 5883 5883 5884
5878 5877 5876 5876 5875 5874 5874 5873 5872 5871 5870 5869 5869 5868 5868 5868 5868 5869 5869 5869 5869 5870 5870 5870 5871 5871 5871 5871 5872 5873 5873 5874 5874 5876 5877 5877 5878 5878 5878 5880 5882 5882 5883
5877 5876 5875 5874 5874 5873 5872 5871 5871 5870 5869 5868 5868 5867 5867 5867 5867 5868 5868 5868 5868 5868 5869 5869 5869 5870 5870 5870 5871 5871 5871 5872 5873 5874 5875 5876 5876 5877 5878 5879 5880 5881 5882
5875 5874 5873 5872 5872 5871 5871 5870 5869 5869 5868 5867 5867 5866 5866 5866 5866 5866 5866 5867 5867 5867 5868 5868 5868 5868 5869 5869 5869 5870 5870 5871 5872 5872 5873 5874 5875 5876 5876 5877 5878 5879 5880
5873 5872 5871 5869 5869 5869 5869 5868 5868 5867 5866 5866 5866 5865 5865 5865 5865 5865 5865 5865 5866 5866 5866 5866 5867 5867 5867 5868 5868 5868 5868 5869 5870 5870 5871 5872 5873 5874 5875 5876 5877 5877 5878
5872 5870 5868 5867 5867 5867 5867 5866 5866 5866 5865 5865 5864 5864 5863 5863 5863 5863 5864 5864 5864 5864 5864 5865 5865 5865 5865 5866 5866 5866 5866 5867 5868 5868 5869 5870 5871 5872 5873 5874 5874 5875 5876
5869 5868 5867 5866 5865 5865 5865 5864 5864 5864 5863 5863 5862 5862 5862 5862 5861 5861 5862 5862 5862 5862 5862 5862 5863 5863 5863 5863 5863 5863 5864 5865 5866 5866 5867 5868 5869 5870 5870 5871 5872 5873 5873
5867 5866 5865 5864 5863 5863 5862 5862 5862 5862 5861 5861 5861 5860 5860 5860 5859 5859 5859 5860 5860 5859 5859 5859 5860 5860 5860 5860 5861 5861 5862 5862 5863 5864 5865 5866 5866 5867 5868 5869 5869 5870 5871
5864 5864 5862 5862 5861 5860 5860 5860 5860 5859 5859 5859 5859 5858 5858 5857 5857 5857 5857 5857 5857 5857 5857 5857 5856 5857 5857 5857 5858 5859 5859 5859 5860 5861 5862 5863 5863 5864 5865 5866 5866 5867 5868
5862 5862 5860 5859 5859 5858 5858 5857 5857 5857 5856 5856 5856 5856 5855 5855 5855 5855 5854 5854 5854 5854 5854 5854 5854 5854 5854 5854 5855 5855 5856 5856 5857 5858 5859 5860 5860 5861 5862 5862 5863 5864 5864
5860 5859 5858 5857 5856 5855 5855 5854 5854 5854 5853 5853 5853 5853 5853 5852 5852 5852 5852 5851 5851 5851 5851 5851 5850 5850 5850 5851 5851 5852 5853 5853 5854 5854 5855 5856 5857 5857 5858 5859 5860 5860 5861
5856 5856 5855 5854 5853 5853 5852 5851 5851 5851 5851 5850 5850 5850 5850 5849 5849 5849 5849 5848 5848 5847 5847 5847 5847 5847 5847 5847 5847 5848 5849 5849 5850 5850 5851 5852 5852 5853 5854 5855 5856 5856 5857
5852 5852 5851 5851 5850 5849 5849 5848 5848 5847 5848 5848 5847 5847 5847 5846 5846 5846 5845 5845 5845 5844 5844 5843 5843 5843 5843 5844 5844 5844 5845 5845 5845 5846 5846 5847 5848 5849 5850 5850 5851 5852 5853
5848 5848 5847 5847 5846 5845 5845 5844 5844 5844 5844 5844 5844 5844 5843 5843 5843 5843 5842 5842 5841 5841 5841 5840 5840 5840 5840 5840 5840 5840 5840 5841 5841 5841 5842 5842 5843 5844 5844 5845 5846 5847 5848
5844 5844 5843 5842 5842 5841 5840 5840 5840 5840 5840 5840 5840 5840 5840 5840 5839 5839 5839 5838 5838 5838 5837 5837 5836 5836 5836 5836 5836 5836 5836 5837 5837 5837 5837 5837 5838 5839 5839 5840 5841 5842 5843
5839 5839 5838 5838 5837 5836 5836 5836 5835 5836 5835 5836 5836 5836 5836 5835 5835 5835 5835 5835 5834 5834 5833 5833 5832 5832 5832 5831 5831 5831 5831 5832 5832 5832 5832 5832 5833 5833 5834 5835 5836 5836 5837
5833 5833 5833 5833 5832 5832 5831 5831 5831 5831 5831 5831 5831 5831 5831 5831 5831 5831 5831 5831 5830 5830 5829 5829 5828 5828 5827 5827 5827 5826 5826 5826 5826 5826 5827 5826 5827 5827 5828 5829 5830 5831 5831
5829 5828 5828 5828 5827 5827 5827 5826 5826 5826 5826 5826 5826 5826 5826 5827 5826 5826 5826 5826 5826 5825 5825 5824 5824 5823 5822 5822 5822 5821 5821 5821 5820 5820 5821 5821 5821 5821 5822 5822 5823 5824 5825
5825 5824 5824 5823 5823 5822 5822 5822 5822 5822 5821 5821 5821 5821 5821 5821 5821 5821 5821 5821 5821 5820 5820 5819 5819 5818 5817 5817 5816 5816 5816 5816 5815 5815 5814 5815 5815 5815 5816 5816 5817 5817 5818